This demonstration page uses our WeatherBlox Daily Observations layout. Learn more.

39.08367, -84.50855

Hourly Observations for June 23, 2019

Temp ( °F °C ) Dew Point ( °F °C ) Humidity (%) Winds ( mph kmh ) Pressure ( in mb ) Visibility ( mi km ) Precip ( " mm )
12:53 am 00:53 Clear 63 17.2 61 16.1 93 93 ESE 7 11 30.09 1019 10 16.09344 0 0
1:53 am 01:53 Clear 61 16.1 60 15.6 97 97 VRB 6 9 30.06 1018 8 12.874752 0 0
2:53 am 02:53 Clear with Light Rain 61 16.1 60 15.6 97 97 Calm 30.06 1018 8 12.874752 0.001 0.001
3:53 am 03:53 Clear 61 16.1 59 15 93 93 Calm 30.06 1018 7 11.265408 0.001 0.001
4:53 am 04:53 Clear with Mist and Fog 60 15.6 59 15 96 96 VRB 5 7 30.06 1018 5 8.04672 0 0
5:31 am 05:31 Clear with Mist and Fog 59 15 58 14.4 96 96 VRB 3 6 30.03 1017 2 3.218688 0 0
5:40 am 05:40 Clear with Mist and Fog 59 15 58 14.4 96 96 VRB 3 6 30.03 1017 6 9.656064 0 0
5:53 am 05:53 Clear 60 15.6 59 15 96 96 VRB 5 7 30.03 1017 7 11.265408 0 0
6:53 am 06:53 Sunny 60 15.6 59 15 96 96 Calm 30.03 1017 10 16.09344 0 0
7:53 am 07:53 Sunny 64 17.8 62 16.7 93 93 VRB 3 6 30.03 1017 10 16.09344 0 0
8:53 am 08:53 Sunny 67 19.4 62 16.7 84 84 Calm 30.06 1018 10 16.09344 0 0
9:53 am 09:53 Sunny 72 22.2 63 17.2 73 73 Calm 30.03 1017 10 16.09344 0 0
10:53 am 10:53 Sunny 75 23.9 60 15.6 60 60 ESE 12 19 29.97 1015 10 16.09344 0 0
11:53 am 11:53 Sunny 75 23.9 63 17.2 66 66 S 10 17 30 1016 10 16.09344 0 0
12:53 pm 12:53 Sunny 78 25.6 67 19.4 69 69 S 6 9 29.97 1015 10 16.09344 0 0
1:53 pm 13:53 Sunny 80 26.7 68 20 67 67 SSW 8 13 29.97 1015 10 16.09344 0 0
2:53 pm 14:53 Mostly Sunny 82 27.8 70 21.1 67 67 SSW 10 17 29.94 1014 10 16.09344 0 0
3:53 pm 15:53 Mostly Cloudy 83 28.3 71 21.7 67 67 SSW 12 19 29.91 1013 10 16.09344 0 0
4:53 pm 16:53 Partly Cloudy 83 28.3 71 21.7 67 67 S 7 11 29.88 1012 10 16.09344 0 0
5:53 pm 17:53 Cloudy 82 27.8 73 22.8 74 74 S 7 11 29.88 1012 10 16.09344 0 0
6:08 pm 18:08 Windy with Storms Likely 77 25 65 18.3 66 66 W 23 37 29.94 1014 10 16.09344 0.01 0.254
6:16 pm 18:16 Cloudy with Light Thunderstorms 72 22.2 64 17.8 76 76 W 14 22 29.94 1014 4 6.437376 0.01 0.254
6:38 pm 18:38 Cloudy with Light Thunderstorms 70 21.1 65 18.3 84 84 SW 14 22 29.94 1014 2.5 4.02336 0.05 1.27
6:53 pm 18:53 Cloudy with Light Thunderstorms 69 20.6 66 18.9 90 90 SSE 5 7 29.94 1014 4 6.437376 0.09 2.286
7:08 pm 19:08 Mostly Cloudy with Light Rain 69 20.6 66 18.9 90 90 VRB 5 7 29.91 1013 7 11.265408 0 0
7:53 pm 19:53 Partly Cloudy with Light Rain 69 20.6 67 19.4 93 93 NNE 7 11 29.85 1011 10 16.09344 0 0
8:53 pm 20:53 Mostly Sunny 69 20.6 67 19.4 93 93 VRB 3 6 29.85 1011 8 12.874752 0.001 0.001
9:38 pm 21:38 Partly Cloudy 69 20.6 68 20 96 96 SSW 7 11 29.88 1012 8 12.874752 0 0
9:53 pm 21:53 Mostly Cloudy 69 20.6 68 20 96 96 S 5 7 29.85 1011 8 12.874752 0 0
10:28 pm 22:28 Partly Cloudy 70 21.1 67 19.4 90 90 S 7 11 29.88 1012 8 12.874752 0 0
10:53 pm 22:53 Clear 70 21.1 67 19.4 90 90 S 9 15 29.85 1011 10 16.09344 0 0
11:53 pm 23:53 Mostly Cloudy 70 21.1 67 19.4 90 90 S 6 9 29.83 1010 10 16.09344 0 0

Powered by AerisWeather